Location: Avenches
(46.8809°N, 7.0410°E)
Time: 17:54:52
(UTC+00:00)

Cosmos 2278 Rocket - Pass Details

Date: 30 March 2020
Orbit: 839 x 847 km, 71.0° (Epoch: 24 May)

Event Time Altitude Azimuth Distance (km) Brightness Sun altitude
Rises 19:05:26 0° 323° (NW) 3,414 6.4 -11.9°
Reaches altitude 10° 19:08:17 10° 310° (NW) 2,475 5.9 -12.3°
Maximum altitude 19:12:45 24° 258° (WSW) 1,675 4.5 -13.1°
Drops below altitude 10° 19:17:11 10° 206° (SSW) 2,464 4.7 -13.8°
Sets 19:20:03 0° 193° (SSW) 3,395 5.2 -14.2°
